Time[GMT],temperature[C](0m),salinity[psu](0m),sigma_t[kg/m^3](0m),chlorophyll[micrograms/l](0m),conductivity[siemens/m](0m),dissolved_oxygen[ml/l](0m),turbidity[ntu](0m)
2015-03-24 19:00,26.76,36.140,23.656,0.16,,4.60,0.12
2015-03-24 20:00,26.80,36.140,23.643,0.17,,4.60,0.12
2015-03-24 21:00,26.76,36.140,23.656,0.19,,4.61,0.12
2015-03-24 22:00,26.71,36.140,23.671,0.21,,4.62,0.12
2015-03-24 23:00,26.66,36.140,23.687,0.21,,4.63,0.13
2015-03-25 00:00,26.64,36.140,23.694,0.21,,4.63,0.12
2015-03-25 01:00,26.59,36.150,23.717,0.22,,4.63,0.12
2015-03-25 02:00,26.56,36.150,23.727,0.21,,4.63,0.12
2015-03-25 03:00,26.52,36.150,23.739,0.22,,4.63,0.13
2015-03-25 04:00,26.51,36.150,23.743,0.22,,4.63,0.13
2015-03-25 06:00,26.51,36.150,23.743,0.22,,4.62,0.13
2015-03-25 07:00,26.52,36.150,23.739,0.22,,4.63,0.13
2015-03-25 08:00,26.53,36.140,23.729,0.21,,4.61,0.13
2015-03-25 09:00,26.53,36.140,23.729,0.21,,4.59,0.13
2015-03-25 10:00,26.51,36.140,23.735,0.21,,4.58,0.13
2015-03-25 11:00,26.51,36.140,23.735,0.21,,4.58,0.15
2015-03-25 12:00,26.49,36.140,23.741,0.21,,4.59,0.13
2015-03-25 13:00,26.51,36.150,23.743,0.17,,4.60,0.13
2015-03-25 14:00,26.53,36.150,23.736,0.16,,4.60,0.12
2015-03-25 15:00,26.57,36.150,23.724,0.15,,4.60,0.12
2015-03-25 16:00,26.63,36.150,23.704,0.15,,4.61,0.12
2015-03-25 17:00,26.67,36.150,23.692,0.15,,4.61,0.12
2015-03-25 18:00,26.69,36.140,23.678,0.16,,4.61,0.13
2015-03-25 19:00,26.77,36.150,23.660,0.16,,4.62,0.12
2015-03-25 20:00,26.78,36.150,23.657,0.17,,4.63,0.12
2015-03-25 21:00,26.74,36.140,23.662,0.19,,4.63,0.13
2015-03-25 22:00,26.71,36.140,23.671,0.21,,4.64,0.13
2015-03-25 23:00,26.67,36.140,23.684,0.21,,4.64,0.13
2015-03-26 00:00,26.63,36.140,23.697,0.22,,4.65,0.13
2015-03-26 01:00,26.60,36.140,23.706,0.22,,4.66,0.13
2015-03-26 02:00,26.57,36.140,23.716,0.22,,4.66,0.13
2015-03-26 03:00,26.57,36.140,23.716,0.21,,4.65,0.13
2015-03-26 04:00,26.56,36.150,23.727,0.21,,4.65,0.13
2015-03-26 05:00,26.55,36.150,23.730,0.22,,4.65,0.13
2015-03-26 06:00,26.55,36.150,23.730,0.21,,4.65,0.13
2015-03-26 07:00,26.55,36.150,23.730,0.21,,4.64,0.13
2015-03-26 08:00,26.53,36.140,23.729,0.22,,4.64,0.13
2015-03-26 09:00,26.55,36.140,23.722,0.22,,4.63,0.13
2015-03-26 10:00,26.57,36.140,23.716,0.23,,4.62,0.14
2015-03-26 11:00,26.56,36.140,23.719,0.23,,4.62,0.14
2015-03-26 12:00,26.58,36.140,23.713,0.19,,4.61,0.13
2015-03-26 13:00,26.56,36.140,23.719,0.18,,4.62,0.14
2015-03-26 14:00,26.57,36.140,23.716,0.17,,4.63,0.13
2015-03-26 15:00,26.58,36.140,23.713,0.16,,4.63,0.13
2015-03-26 16:00,26.59,36.140,23.710,0.16,,4.63,0.13
2015-03-26 17:00,26.62,36.150,23.708,0.15,,4.63,0.13
2015-03-26 18:00,26.66,36.150,23.695,0.15,,4.64,0.13
2015-03-26 19:00,26.68,36.150,23.689,0.16,,4.64,0.13
2015-03-26 20:00,26.69,36.150,23.685,0.18,,4.64,0.13
2015-03-26 21:00,26.70,36.160,23.690,0.20,,4.64,0.13
2015-03-26 22:00,26.68,36.150,23.689,0.21,,4.65,0.14
2015-03-26 23:00,26.65,36.150,23.698,0.22,,4.66,0.13
2015-03-27 00:00,26.63,36.150,23.704,0.22,,4.67,0.13
2015-03-27 01:00,26.60,36.150,23.714,0.23,,4.67,0.14
2015-03-27 02:00,26.58,36.150,23.720,0.23,,4.67,0.14
2015-03-27 03:00,26.56,36.150,23.727,0.23,,4.66,0.15
2015-03-27 04:00,26.55,36.150,23.730,0.24,,4.66,0.14
2015-03-27 05:00,26.55,36.150,23.730,0.24,,4.65,0.14
2015-03-27 06:00,26.54,36.150,23.733,0.23,,4.64,0.14
2015-03-27 07:00,26.53,36.140,23.729,0.23,,4.65,0.14
2015-03-27 08:00,26.52,36.140,23.732,0.23,,4.65,0.15
2015-03-27 09:00,26.52,36.150,23.739,0.23,,4.63,0.14
2015-03-27 10:00,26.54,36.160,23.741,0.26,,4.61,0.15
2015-03-27 11:00,26.56,36.160,23.734,0.26,,4.60,0.16
2015-03-27 12:00,26.55,36.160,23.737,0.23,,4.60,0.15
2015-03-27 13:00,26.54,36.170,23.748,0.21,,4.61,0.16
2015-03-27 14:00,26.54,36.170,23.748,0.20,,4.63,0.16
2015-03-27 15:00,26.58,36.200,23.758,0.19,,4.60,0.16
2015-03-27 16:00,26.58,36.210,23.766,0.17,,4.62,0.15
2015-03-27 17:00,26.59,36.200,23.755,0.17,,4.63,0.14
2015-03-27 18:00,26.60,36.200,23.752,0.18,,4.63,0.15
2015-03-27 19:00,26.59,36.200,23.755,0.19,,4.64,0.14
2015-03-27 20:00,26.58,36.200,23.758,0.24,,4.65,0.15
2015-03-27 21:00,26.58,36.210,23.766,0.24,,4.65,0.15
2015-03-27 22:00,26.57,36.210,23.769,0.27,,4.66,0.15
2015-03-27 23:00,26.55,36.220,23.783,0.28,,4.66,0.15
2015-03-28 00:00,26.55,36.230,23.790,0.27,,4.66,0.15
2015-03-28 01:00,26.54,36.240,23.801,0.26,,4.66,0.15
2015-03-28 02:00,26.54,36.240,23.801,0.26,,4.65,0.15
2015-03-28 03:00,26.55,36.260,23.813,0.23,,4.63,0.14
2015-03-28 04:00,26.52,36.260,23.822,0.20,,4.62,0.14
2015-03-28 05:00,26.53,36.260,23.819,0.19,,4.61,0.14
2015-03-28 06:00,26.52,36.260,23.822,0.20,,4.61,0.14
2015-03-28 07:00,26.49,36.260,23.832,0.19,,4.61,0.14
2015-03-28 08:00,26.49,36.260,23.832,0.19,,4.60,0.13
2015-03-28 09:00,26.48,36.260,23.835,0.20,,4.60,0.14
2015-03-28 10:00,26.48,36.260,23.835,0.21,,4.58,0.14
2015-03-28 11:00,26.48,36.260,23.835,0.22,,4.58,0.14
2015-03-28 12:00,26.48,36.260,23.835,0.20,,4.59,0.15
2015-03-28 13:00,26.48,36.270,23.843,0.17,,4.58,0.14
2015-03-28 14:00,26.49,36.270,23.839,0.16,,4.60,0.15
2015-03-28 15:00,26.54,36.260,23.816,0.14,,4.60,0.14
2015-03-28 16:00,26.60,36.260,23.797,0.14,,4.60,0.13
2015-03-28 17:00,26.63,36.260,23.787,0.14,,4.61,0.13
2015-03-28 18:00,26.68,36.260,23.772,0.14,,4.62,0.13
2015-03-28 19:00,26.72,36.250,23.751,0.14,,4.62,0.13
2015-03-28 20:00,26.72,36.250,23.751,0.15,,4.61,0.13
2015-03-28 21:00,26.69,36.260,23.768,0.17,,4.63,0.13
2015-03-28 22:00,26.66,36.260,23.778,0.19,,4.63,0.13
2015-03-28 23:00,26.61,36.260,23.794,0.19,,4.63,0.14
2015-03-29 00:00,26.60,36.260,23.797,0.20,,4.64,0.15
2015-03-29 01:00,26.57,36.260,23.807,0.20,,4.65,0.14
2015-03-29 02:00,26.54,36.260,23.816,0.20,,4.65,0.14
2015-03-29 03:00,26.52,36.260,23.822,0.20,,4.64,0.14
2015-03-29 04:00,26.53,36.250,23.812,0.19,,4.64,0.14
2015-03-29 05:00,26.52,36.250,23.815,0.19,,4.64,0.14
2015-03-29 07:00,26.50,36.250,23.821,0.19,,4.63,0.14
2015-03-29 08:00,26.50,36.250,23.821,0.19,,4.62,0.14
2015-03-29 09:00,26.50,36.250,23.821,0.19,,4.61,0.14
2015-03-29 10:00,26.49,36.260,23.832,0.20,,4.59,0.14
2015-03-29 11:00,26.47,36.260,23.838,0.19,,4.59,0.14
2015-03-29 12:00,26.47,36.260,23.838,0.18,,4.59,0.14
2015-03-29 14:00,26.51,36.260,23.826,0.16,,4.60,0.14
2015-03-29 15:00,26.56,36.270,23.817,0.15,,4.60,0.14
2015-03-29 17:00,26.67,36.260,23.775,0.15,,4.63,0.13
2015-03-29 18:00,26.78,36.260,23.740,0.14,,4.63,0.13
2015-03-29 19:00,26.73,36.260,23.756,0.14,,4.63,0.13
2015-03-29 20:00,26.78,36.260,23.740,0.15,,4.63,0.13
2015-03-29 21:00,26.76,36.250,23.738,0.17,,4.63,0.14
2015-03-29 22:00,26.75,36.250,23.742,0.18,,4.63,0.13
2015-03-29 23:00,26.68,36.250,23.764,0.19,,4.64,0.14
2015-03-30 00:00,26.59,36.260,23.800,0.20,,4.65,0.14
2015-03-30 01:00,26.59,36.260,23.800,0.20,,4.65,0.14
2015-03-30 02:00,26.56,36.260,23.810,0.21,,4.65,0.14
2015-03-30 03:00,26.56,36.260,23.810,0.21,,4.65,0.14
2015-03-30 04:00,26.55,36.260,23.813,0.21,,4.65,0.14
2015-03-30 05:00,26.54,36.260,23.816,0.21,,4.65,0.14
2015-03-30 06:00,26.54,36.260,23.816,0.21,,4.65,0.14
2015-03-30 07:00,26.54,36.260,23.816,0.20,,4.65,0.14
2015-03-30 08:00,26.53,36.260,23.819,0.20,,4.65,0.14
2015-03-30 09:00,26.51,36.260,23.826,0.20,,4.60,0.14
2015-03-30 10:00,26.51,36.260,23.826,0.20,,4.61,0.14
2015-03-30 11:00,26.52,36.260,23.822,0.20,,4.61,0.14
2015-03-30 12:00,26.54,36.270,23.824,0.19,,4.60,0.14
2015-03-30 13:00,26.55,36.270,23.820,0.17,,4.59,0.14
2015-03-30 14:00,26.58,36.270,23.811,0.17,,4.58,0.14
2015-03-30 15:00,26.64,36.270,23.792,0.16,,4.60,0.14
2015-03-30 16:00,26.69,36.270,23.776,0.16,,4.60,0.14
2015-03-30 17:00,26.72,36.280,23.774,0.16,,4.60,0.14
2015-03-30 18:00,26.72,36.280,23.774,0.15,,4.60,0.14
2015-03-30 19:00,26.74,36.270,23.760,0.16,,4.61,0.13
2015-03-30 20:00,26.73,36.270,23.763,0.17,,4.62,0.14
2015-03-30 21:00,26.70,36.270,23.773,0.20,,4.63,0.14
2015-03-30 22:00,26.66,36.270,23.785,0.21,,4.64,0.14
2015-03-30 23:00,26.64,36.270,23.792,0.22,,4.65,0.14
2015-03-31 00:00,26.65,36.270,23.789,0.23,,4.66,0.15
2015-03-31 01:00,26.63,36.270,23.795,0.25,,4.67,0.16
2015-03-31 02:00,26.64,36.270,23.792,0.25,,4.65,0.15
2015-03-31 03:00,26.64,36.270,23.792,0.26,,4.63,0.16
2015-03-31 04:00,26.64,36.270,23.792,0.25,,4.62,0.16
2015-03-31 05:00,26.63,36.270,23.795,0.25,,4.60,0.16
2015-03-31 06:00,26.61,36.270,23.801,0.25,,4.62,0.16
2015-03-31 07:00,26.59,36.270,23.808,0.24,,4.61,0.15
2015-03-31 08:00,26.58,36.270,23.811,0.23,,4.61,0.15
2015-03-31 09:00,26.57,36.270,23.814,0.23,,4.60,0.15
2015-03-31 10:00,26.57,36.270,23.814,0.24,,4.60,0.15
2015-03-31 11:00,26.57,36.270,23.814,0.24,,4.59,0.16
2015-03-31 12:00,26.59,36.270,23.808,0.22,,4.58,0.16
2015-03-31 13:00,26.62,36.270,23.798,0.22,,4.59,0.17
2015-03-31 14:00,26.63,36.270,23.795,0.20,,4.59,0.17
2015-03-31 15:00,26.64,36.280,23.799,0.18,,4.58,0.16
2015-03-31 16:00,26.65,36.280,23.796,0.17,,4.58,0.16
2015-03-31 18:00,26.67,36.270,23.782,0.15,,4.63,0.14
2015-03-31 19:00,26.70,36.270,23.773,0.15,,4.64,0.13
2015-03-31 20:00,26.67,36.270,23.782,0.16,,4.65,0.14
2015-03-31 21:00,26.62,36.270,23.798,0.18,,4.67,0.14
2015-03-31 22:00,26.59,36.270,23.808,0.20,,4.68,0.14
2015-03-31 23:00,26.57,36.270,23.814,0.21,,4.69,0.14
2015-04-01 00:00,26.56,36.270,23.817,0.21,,4.68,0.14
2015-04-01 01:00,26.56,36.270,23.817,0.22,,4.67,0.14
2015-04-01 02:00,26.58,36.280,23.818,0.22,,4.64,0.14
2015-04-01 03:00,26.60,36.310,23.835,0.21,,4.62,0.14
2015-04-01 04:00,26.59,36.300,23.830,0.22,,4.61,0.15
2015-04-01 05:00,26.59,36.310,23.838,0.21,,4.62,0.14
2015-04-01 06:00,26.58,36.310,23.841,0.21,,4.61,0.15
2015-04-01 07:00,26.57,36.310,23.844,0.20,,4.60,0.14
2015-04-01 08:00,26.54,36.310,23.854,0.20,,4.61,0.14
2015-04-01 09:00,26.52,36.310,23.860,0.20,,4.62,0.14
2015-04-01 10:00,26.50,36.300,23.859,0.22,,4.61,0.15
2015-04-01 11:00,26.50,36.300,23.859,0.20,,4.60,0.14
2015-04-01 12:00,26.51,36.310,23.863,0.19,,4.60,0.14
2015-04-01 13:00,26.54,36.310,23.854,0.18,,4.60,0.14
2015-04-01 14:00,26.56,36.320,23.855,0.17,,4.60,0.14
2015-04-01 15:00,26.59,36.320,23.845,0.17,,4.60,0.14
2015-04-01 16:00,26.61,36.320,23.839,0.17,,4.60,0.14
2015-04-01 17:00,26.61,36.320,23.839,0.16,,4.63,0.15
2015-04-01 18:00,26.61,36.310,23.832,0.15,,4.63,0.13
2015-04-01 19:00,26.59,36.300,23.830,0.15,,4.63,0.13
2015-04-01 20:00,26.57,36.290,23.829,0.16,,4.65,0.13
2015-04-01 21:00,26.55,36.290,23.835,0.18,,4.65,0.13
2015-04-01 22:00,26.53,36.290,23.842,0.20,,4.66,0.13
2015-04-01 23:00,26.51,36.290,23.848,0.20,,4.66,0.13
2015-04-02 00:00,26.50,36.290,23.851,0.20,,4.65,0.14
2015-04-02 01:00,26.51,36.290,23.848,0.20,,4.65,0.13
2015-04-02 02:00,26.51,36.290,23.848,0.20,,4.65,0.13
2015-04-02 03:00,26.49,36.290,23.855,0.20,,4.65,0.13
2015-04-02 04:00,26.49,36.290,23.855,0.19,,4.64,0.13
2015-04-02 05:00,26.49,36.280,23.847,0.19,,4.64,0.13
2015-04-02 06:00,26.49,36.290,23.855,0.20,,4.63,0.14
2015-04-02 08:00,26.48,36.290,23.858,0.20,,4.64,0.13
2015-04-02 09:00,26.48,36.290,23.858,0.20,,4.62,0.13
2015-04-02 10:00,26.47,36.290,23.861,0.20,,4.61,0.13
2015-04-02 11:00,26.47,36.290,23.861,0.20,,4.60,0.13
2015-04-02 12:00,26.48,36.290,23.858,0.18,,4.59,0.13
2015-04-02 13:00,26.50,36.290,23.851,0.16,,4.60,0.13
2015-04-02 14:00,26.52,36.290,23.845,0.16,,4.60,0.13
2015-04-02 15:00,26.57,36.290,23.829,0.15,,4.62,0.13
2015-04-02 16:00,26.61,36.290,23.816,0.15,,4.63,0.13
2015-04-02 17:00,26.64,36.290,23.807,0.15,,4.63,0.13
2015-04-02 18:00,26.65,36.290,23.804,0.15,,4.62,0.14
2015-04-02 19:00,26.66,36.290,23.801,0.15,,4.61,0.13
2015-04-02 20:00,26.65,36.290,23.804,0.18,,4.63,0.13
2015-04-02 21:00,26.61,36.290,23.816,0.20,,4.61,0.13
2015-04-02 22:00,26.58,36.290,23.826,0.21,,4.63,0.13
2015-04-02 23:00,26.57,36.290,23.829,0.21,,4.63,0.13
2015-04-03 00:00,26.55,36.290,23.835,0.21,,4.63,0.13
2015-04-03 01:00,26.54,36.290,23.839,0.21,,4.63,0.13
2015-04-03 02:00,26.51,36.290,23.848,0.21,,4.63,0.13
2015-04-03 03:00,26.51,36.290,23.848,0.20,,4.62,0.14
2015-04-03 04:00,26.51,36.290,23.848,0.20,,4.61,0.13
2015-04-03 05:00,26.51,36.290,23.848,0.20,,4.61,0.13
2015-04-03 06:00,26.50,36.290,23.851,0.20,,4.60,0.13
2015-04-03 07:00,26.49,36.290,23.855,0.20,,4.61,0.13
2015-04-03 08:00,26.49,36.290,23.855,0.20,,4.60,0.13
2015-04-03 09:00,26.48,36.290,23.858,0.20,,4.60,0.13
2015-04-03 10:00,26.48,36.290,23.858,0.20,,4.58,0.13
2015-04-03 11:00,26.47,36.290,23.861,0.20,,4.60,0.13
2015-04-03 12:00,26.48,36.290,23.858,0.18,,4.60,0.13
2015-04-03 13:00,26.47,36.290,23.861,0.18,,4.61,0.13
2015-04-03 14:00,26.48,36.300,23.865,0.18,,4.61,0.13
2015-04-03 15:00,26.48,36.300,23.865,0.19,,4.60,0.13
2015-04-03 16:00,26.49,36.300,23.862,0.18,,4.60,0.13
2015-04-03 17:00,26.50,36.300,23.859,0.18,,4.60,0.13
2015-04-03 18:00,26.51,36.300,23.856,0.17,,4.63,0.14
2015-04-03 19:00,26.51,36.300,23.856,0.18,,4.63,0.14
2015-04-03 20:00,26.51,36.300,23.856,0.19,,4.63,0.13
2015-04-03 21:00,26.51,36.300,23.856,0.19,,4.65,0.13
2015-04-03 22:00,26.49,36.290,23.855,0.22,,4.65,0.13
2015-04-04 00:00,26.47,36.290,23.861,0.22,,4.64,0.13
2015-04-04 01:00,26.47,36.290,23.861,0.22,,4.63,0.13
2015-04-04 02:00,26.46,36.290,23.864,0.22,,4.63,0.14
2015-04-04 03:00,26.45,36.290,23.867,0.22,,4.63,0.13
2015-04-04 04:00,26.44,36.300,23.878,0.21,,4.62,0.13
2015-04-04 05:00,26.44,36.300,23.878,0.22,,4.60,0.14
2015-04-04 06:00,26.44,36.300,23.878,0.21,,4.60,0.13
2015-04-04 07:00,26.42,36.300,23.884,0.21,,4.60,0.13
2015-04-04 08:00,26.42,36.300,23.884,0.21,,4.60,0.13
2015-04-04 09:00,26.42,36.300,23.884,0.21,,4.60,0.13
2015-04-04 10:00,26.42,36.300,23.884,0.21,,4.60,0.13
2015-04-04 11:00,26.40,36.300,23.891,0.20,,4.60,0.13
2015-04-04 12:00,26.39,36.290,23.886,0.19,,4.60,0.13
2015-04-04 13:00,26.41,36.290,23.880,0.17,,4.60,0.13
2015-04-04 14:00,26.41,36.290,23.880,0.16,,4.60,0.13
2015-04-04 15:00,26.44,36.290,23.870,0.15,,4.60,0.13
2015-04-04 16:00,26.51,36.300,23.856,0.15,,4.60,0.13
2015-04-04 17:00,26.55,36.300,23.843,0.15,,4.60,0.13
2015-04-04 18:00,26.63,36.290,23.810,0.14,,4.60,0.13
2015-04-04 19:00,26.71,36.300,23.792,0.15,,4.60,0.12
2015-04-04 20:00,26.70,36.290,23.788,0.15,,4.60,0.15
2015-04-04 21:00,26.64,36.280,23.799,0.19,,4.61,0.14
2015-04-04 22:00,26.58,36.270,23.811,0.19,,4.61,0.13
2015-04-04 23:00,26.37,35.750,23.485,0.20,,4.63,0.12
2015-04-05 00:00,26.51,36.190,23.773,0.20,,4.60,0.12
2015-04-05 01:00,26.48,36.220,23.805,0.20,,4.60,0.13
2015-04-05 02:00,26.46,36.230,23.819,0.20,,4.60,0.13
2015-04-05 03:00,26.44,36.230,23.825,0.20,,4.60,0.13
2015-04-05 04:00,26.43,36.230,23.828,0.20,,4.61,0.13
2015-04-05 05:00,26.43,36.250,23.843,0.20,,4.61,0.13
2015-04-05 06:00,26.46,36.270,23.849,0.20,,4.60,0.13
2015-04-05 07:00,26.44,36.270,23.855,0.20,,4.60,0.13
2015-04-05 08:00,26.44,36.270,23.855,0.20,,4.60,0.13
2015-04-05 09:00,26.40,36.250,23.853,0.20,,4.60,0.13
2015-04-05 10:00,26.39,36.240,23.848,0.20,,4.60,0.13
2015-04-05 11:00,26.39,36.230,23.841,0.19,,4.60,0.12
2015-04-05 12:00,26.41,36.240,23.842,0.18,,4.60,0.13
2015-04-05 13:00,26.45,36.240,23.829,0.16,,4.60,0.13
2015-04-05 14:00,26.50,36.240,23.814,0.15,,4.60,0.12
2015-04-05 15:00,26.60,36.250,23.789,0.15,,4.60,0.12
2015-04-05 16:00,26.63,36.250,23.780,0.14,,4.60,0.12
2015-04-05 17:00,26.70,36.250,23.758,0.14,,4.60,0.12
2015-04-05 18:00,26.79,36.270,23.744,0.14,,4.60,0.12
2015-04-05 19:00,26.78,36.270,23.747,0.14,,4.61,0.12
2015-04-05 20:00,26.77,36.260,23.743,0.15,,4.61,0.12
2015-04-05 21:00,26.71,36.260,23.762,0.16,,4.61,0.12
2015-04-05 22:00,26.67,36.260,23.775,0.18,,4.62,0.12
2015-04-05 23:00,26.67,36.250,23.767,0.17,,4.63,0.12
2015-04-06 00:00,26.59,36.250,23.793,0.18,,4.63,0.12
2015-04-06 01:00,26.54,36.250,23.808,0.18,,4.62,0.12
2015-04-06 02:00,26.51,36.250,23.818,0.18,,4.62,0.12
2015-04-06 03:00,26.52,36.250,23.815,0.18,,4.62,0.12
2015-04-06 04:00,26.49,36.260,23.832,0.19,,4.63,0.13
2015-04-06 05:00,26.53,36.270,23.827,0.19,,4.62,0.13
2015-04-06 06:00,26.55,36.260,23.813,0.18,,4.61,0.12
2015-04-06 07:00,26.53,36.270,23.827,0.18,,4.60,0.13
2015-04-06 08:00,26.51,36.270,23.833,0.19,,4.60,0.13
2015-04-06 09:00,26.51,36.270,23.833,0.19,,4.60,0.13
2015-04-06 10:00,26.49,36.270,23.839,0.19,,4.61,0.13
2015-04-06 11:00,26.47,36.260,23.838,0.18,,4.62,0.12
2015-04-06 12:00,26.48,36.250,23.828,0.16,,4.61,0.13
2015-04-06 13:00,26.50,36.250,23.821,0.15,,4.62,0.12
2015-04-06 14:00,26.52,36.250,23.815,0.15,,4.62,0.12
2015-04-06 15:00,26.56,35.870,23.516,0.14,,4.64,0.12
2015-04-06 16:00,26.60,36.260,23.797,0.14,,4.62,0.12
2015-04-06 17:00,26.66,36.270,23.785,0.15,,4.59,0.12
2015-04-06 18:00,26.70,36.270,23.773,0.15,,4.60,0.13
2015-04-06 19:00,26.72,36.270,23.766,0.14,,4.60,0.12
2015-04-06 20:00,26.71,36.270,23.770,0.16,,4.60,0.12
2015-04-06 21:00,26.74,36.270,23.760,0.17,,4.61,0.13
2015-04-06 22:00,26.66,36.260,23.778,0.20,,4.62,0.12
2015-04-06 23:00,26.63,36.250,23.780,0.17,,4.63,0.12
2015-04-07 00:00,26.60,36.250,23.789,0.18,,4.63,0.13
2015-04-07 01:00,26.58,36.250,23.796,0.18,,4.64,0.13
2015-04-07 02:00,26.56,36.250,23.802,0.18,,4.63,0.13
2015-04-07 03:00,26.55,36.250,23.805,0.19,,4.63,0.13
2015-04-07 04:00,26.54,36.260,23.816,0.19,,4.62,0.13
2015-04-07 05:00,26.52,36.260,23.822,0.19,,4.60,0.13
2015-04-07 06:00,26.53,36.260,23.819,0.19,,4.60,0.13
2015-04-07 07:00,26.54,36.260,23.816,0.20,,4.59,0.14
2015-04-07 08:00,26.53,36.260,23.819,0.19,,4.57,0.14
2015-04-07 09:00,26.52,36.260,23.822,0.19,,4.58,0.13
2015-04-07 10:00,26.51,36.260,23.826,0.19,,4.58,0.13
2015-04-07 11:00,26.48,36.240,23.820,0.18,,4.61,0.13
2015-04-07 12:00,26.49,36.240,23.817,0.16,,4.61,0.12
2015-04-07 13:00,26.49,36.240,23.817,0.15,,4.62,0.13
2015-04-07 14:00,26.51,36.250,23.818,0.15,,4.62,0.12
2015-04-07 15:00,26.54,36.250,23.808,0.14,,4.62,0.12
2015-04-07 16:00,26.58,36.250,23.796,0.14,,4.62,0.12
2015-04-07 17:00,26.62,36.250,23.783,0.15,,4.62,0.14
2015-04-07 18:00,26.66,36.250,23.770,0.14,,4.62,0.13
2015-04-07 19:00,26.69,36.250,23.761,0.14,,4.63,0.12
2015-04-07 20:00,26.71,36.250,23.754,0.15,,4.62,0.12
2015-04-07 21:00,26.68,36.250,23.764,0.17,,4.63,0.13
2015-04-07 22:00,26.65,36.250,23.774,0.18,,4.64,0.13
2015-04-07 23:00,26.61,36.250,23.786,0.18,,4.65,0.13
2015-04-08 00:00,26.60,36.250,23.789,0.18,,4.65,0.13
2015-04-08 01:00,26.58,36.250,23.796,0.19,,4.66,0.13
2015-04-08 02:00,26.56,36.250,23.802,0.19,,4.65,0.14
2015-04-08 03:00,26.55,36.250,23.805,0.18,,4.65,0.13
2015-04-08 04:00,26.55,36.250,23.805,0.18,,4.65,0.13
2015-04-08 05:00,26.55,36.250,23.805,0.18,,4.63,0.13
2015-04-08 06:00,26.55,36.250,23.805,0.19,,4.61,0.13
2015-04-08 07:00,26.56,36.250,23.802,0.19,,4.60,0.14
2015-04-08 08:00,26.54,36.260,23.816,0.20,,4.59,0.14
2015-04-08 09:00,26.51,36.250,23.818,0.19,,4.60,0.14
2015-04-08 10:00,26.53,36.260,23.819,0.19,,4.58,0.13
2015-04-08 11:00,26.50,36.250,23.821,0.19,,4.61,0.13
2015-04-08 12:00,26.50,36.250,23.821,0.17,,4.60,0.13
2015-04-08 13:00,26.50,36.250,23.821,0.16,,4.62,0.13
2015-04-08 14:00,26.51,36.250,23.818,0.15,,4.63,0.13
2015-04-08 15:00,26.53,36.250,23.812,0.15,,4.63,0.13
2015-04-08 16:00,26.57,36.250,23.799,0.15,,4.63,0.13
2015-04-08 17:00,26.58,36.250,23.796,0.15,,4.63,0.13
2015-04-08 18:00,26.62,36.250,23.783,0.15,,4.63,0.13
2015-04-08 19:00,26.63,36.260,23.787,0.15,,4.63,0.13
2015-04-08 20:00,26.63,36.260,23.787,0.17,,4.64,0.13
2015-04-08 21:00,26.60,36.260,23.797,0.18,,4.65,0.13
2015-04-08 22:00,26.57,36.250,23.799,0.20,,4.68,0.13
2015-04-08 23:00,26.57,36.250,23.799,0.19,,4.65,0.13
2015-04-09 01:00,26.54,36.250,23.808,0.19,,4.65,0.13
2015-04-09 02:00,26.52,36.250,23.815,0.20,,4.65,0.13
2015-04-09 03:00,26.52,36.250,23.815,0.20,,4.65,0.13
2015-04-09 04:00,26.51,36.250,23.818,0.19,,4.64,0.14
2015-04-09 05:00,26.51,36.250,23.818,0.19,,4.63,0.13
2015-04-09 06:00,26.49,36.250,23.824,0.19,,4.63,0.13
2015-04-09 07:00,26.49,36.260,23.832,0.19,,4.62,0.13
2015-04-09 08:00,26.49,36.260,23.832,0.19,,4.61,0.13
2015-04-09 09:00,26.49,36.260,23.832,0.19,,4.60,0.13
2015-04-09 10:00,26.47,36.260,23.838,0.19,,4.61,0.13
2015-04-09 11:00,26.47,36.250,23.831,0.19,,4.60,0.13
2015-04-09 12:00,26.48,36.260,23.835,0.17,,4.60,0.13
2015-04-09 13:00,26.49,36.260,23.832,0.16,,4.60,0.12
2015-04-09 14:00,26.50,36.260,23.829,0.16,,4.60,0.13
2015-04-09 15:00,26.51,36.260,23.826,0.15,,4.61,0.13
2015-04-09 16:00,26.55,36.260,23.813,0.15,,4.60,0.12
2015-04-09 17:00,26.58,36.260,23.803,0.15,,4.60,0.12
2015-04-09 18:00,26.62,36.260,23.791,0.15,,4.60,0.12
2015-04-09 19:00,26.63,36.260,23.787,0.15,,4.62,0.12
2015-04-09 20:00,26.63,36.270,23.795,0.16,,4.63,0.12
2015-04-09 21:00,26.62,36.270,23.798,0.18,,4.63,0.12
2015-04-09 22:00,26.60,36.270,23.805,0.20,,4.64,0.13
2015-04-09 23:00,26.58,36.270,23.811,0.19,,4.63,0.12
2015-04-10 00:00,26.56,36.260,23.810,0.19,,4.64,0.13
2015-04-10 01:00,26.53,36.260,23.819,0.19,,4.64,0.12
2015-04-10 03:00,26.52,36.260,23.822,0.19,,4.61,0.13
2015-04-10 04:00,26.51,36.260,23.826,0.19,,4.60,0.13
2015-04-10 05:00,26.51,36.260,23.826,0.19,,4.60,0.12
2015-04-10 06:00,26.50,36.270,23.836,0.18,,4.60,0.12
2015-04-10 07:00,26.49,36.270,23.839,0.19,,4.60,0.12
2015-04-10 08:00,26.49,36.270,23.839,0.19,,4.59,0.12
2015-04-10 09:00,26.48,36.270,23.843,0.19,,4.59,0.12
2015-04-10 11:00,26.47,36.280,23.853,0.19,,4.59,0.12
2015-04-10 12:00,26.48,36.280,23.850,0.18,,4.58,0.12
2015-04-10 13:00,26.47,36.270,23.846,0.17,,4.58,0.12
2015-04-10 14:00,26.48,36.270,23.843,0.16,,4.59,0.12
2015-04-10 15:00,26.51,36.260,23.826,0.15,,4.59,0.12
2015-04-10 16:00,26.52,36.260,23.822,0.15,,4.60,0.12
2015-04-10 17:00,26.57,36.260,23.807,0.15,,4.60,0.12
2015-04-10 18:00,26.60,36.270,23.805,0.15,,4.60,0.12
2015-04-10 19:00,26.59,36.270,23.808,0.15,,4.62,0.12
2015-04-10 20:00,26.61,36.270,23.801,0.17,,4.61,0.12
2015-04-10 21:00,26.62,36.270,23.798,0.20,,4.61,0.12
2015-04-10 22:00,26.60,36.280,23.812,0.21,,4.62,0.12
2015-04-10 23:00,26.57,36.280,23.822,0.22,,4.62,0.12
2015-04-11 01:00,26.54,36.270,23.824,0.22,,4.62,0.12
2015-04-11 02:00,26.52,36.270,23.830,0.22,,4.63,0.12
2015-04-11 03:00,26.51,36.270,23.833,0.22,,4.62,0.12
2015-04-11 04:00,26.50,36.270,23.836,0.22,,4.62,0.12
2015-04-11 05:00,26.49,36.270,23.839,0.22,,4.60,0.12
2015-04-11 06:00,26.49,36.270,23.839,0.22,,4.60,0.12
2015-04-11 07:00,26.48,36.270,23.843,0.22,,4.60,0.12
2015-04-11 08:00,26.49,36.280,23.847,0.22,,4.58,0.12
2015-04-11 09:00,26.49,36.280,23.847,0.22,,4.58,0.13
2015-04-11 10:00,26.48,36.280,23.850,0.22,,4.58,0.12
2015-04-11 11:00,26.47,36.280,23.853,0.21,,4.58,0.12
2015-04-11 12:00,26.48,36.280,23.850,0.19,,4.58,0.12
2015-04-11 13:00,26.49,36.270,23.839,0.17,,4.59,0.12
2015-04-11 14:00,26.50,36.270,23.836,0.17,,4.60,0.12
2015-04-11 15:00,26.56,36.270,23.817,0.16,,4.58,0.12
2015-04-11 16:00,26.60,36.270,23.805,0.16,,4.59,0.12
2015-04-11 17:00,26.65,36.270,23.789,0.16,,4.60,0.12
2015-04-11 18:00,26.67,36.270,23.782,0.16,,4.60,0.12
2015-04-11 19:00,26.69,36.270,23.776,0.16,,4.60,0.12
2015-04-11 20:00,26.68,36.270,23.779,0.17,,4.61,0.12
2015-04-11 21:00,26.66,36.270,23.785,0.20,,4.62,0.12
2015-04-11 22:00,26.63,36.270,23.795,0.23,,4.63,0.12
2015-04-11 23:00,26.60,36.270,23.805,0.23,,4.62,0.12
2015-04-12 00:00,26.59,36.270,23.808,0.23,,4.62,0.12
2015-04-12 01:00,26.56,36.270,23.817,0.24,,4.63,0.12
2015-04-12 02:00,26.55,36.270,23.820,0.23,,4.62,0.12
2015-04-12 03:00,26.54,36.270,23.824,0.24,,4.63,0.13
2015-04-12 04:00,26.53,36.270,23.827,0.23,,4.63,0.13
2015-04-12 05:00,26.52,36.270,23.830,0.24,,4.63,0.13
2015-04-12 06:00,26.51,36.270,23.833,0.24,,4.62,0.13
2015-04-12 07:00,26.51,36.270,23.833,0.24,,4.60,0.13
2015-04-12 08:00,26.50,36.270,23.836,0.24,,4.60,0.13
2015-04-12 09:00,26.51,36.270,23.833,0.24,,4.58,0.13
2015-04-12 10:00,26.52,36.270,23.830,0.24,,4.58,0.13
2015-04-12 11:00,26.52,36.280,23.837,0.23,,4.59,0.13
2015-04-12 12:00,26.53,36.280,23.834,0.20,,4.58,0.13
2015-04-12 13:00,26.54,36.280,23.831,0.19,,4.59,0.13
2015-04-12 14:00,26.54,36.280,23.831,0.18,,4.60,0.13